THORAD DELTA 1 DEB, 9985

Orbit data source: Space-Track

THORAD DELTA 1 DEB, 9985 is space debris in SSO originally from a launch on Fri, 15 Nov 1974 UTC launched from the Air Force Western Test Range (AFWTR). Debris objects in space refer to the collection of defunct objects orbiting the Earth. Examples of debris include non-operational satellites, rocket bodies, and fragments generated from explosions, collisions, or faulty payload assembly.

Loading next visibility...
Identifier
9985, 1974-089EC
Orbit
SSO
Country
Flag of USUS
Related business
Manufacturer
Unknown
Mission
Spacecraft
Bus & Motor
Unknown
Mass
Unknown
Launch date (UTC)
1974-11-15 (51 years ago)
Launch vehicle
Unknown
Launch site
Air Force Western Test Range (AFWTR)
Object type
Payload
Rocket body
Debris
Shape & HBR
Unknown shape, 0.1 m
Radar Cross Section
Small (<0.1 m²)

Expand to show TLE details & history
Last TLE update: 2 days ago

TLE from 2 days ago
0 THORAD DELTA 1 DEB
1 09985U 74089EC  26034.11403104 -.00000027  00000-0  12484-3 0  9990
2 09985 101.9773 358.3831 0048935 281.5958 140.5690 12.49080686335740
Epoch: 2026-02-03T02:44Z
TLE epoch observation values (Epoch: 2026-02-03T02:44:12.281Z)
Latitude
60.30066°
Longitude
162.30934°
Altitude
1,508.152 km
Speed
7.103 km/s
True Right ascension
22h 26m 38s
True Declination
60° 09' 60"
Sunlit
Object was in daylight at epoch
Visualization orbit readout
Latitude
Unknown
Longitude
Unknown
Altitude
Unknown
Speed
Unknown
Apparent Right ascension
Unknown
Apparent Declination
Unknown
Sunlit
N/A
Visualization observer readout
Local Sidereal Time
19:51:29
Azimuth
Unknown
Elevation
Unknown
Doppler factor
Unknown
Orbital elements
Apogee altitude
1,504.289 km
Perigee altitude
1,427.519 km
Semi-major axis
7,844.041 km
Eccentricity
0.00489
Inclination
101.9773°
RAAN
358.3831°
Arg. of periapsis
281.5958°
True anomaly
140.92348°
Mean anomaly
140.569°
Eccentric anomaly
140.74641°
Mean motion
3.12416 °/min
Orbital period
115.23 mins
BSTAR
0.00012484
Loading maneuver chart data...
Computing Atmospheric mass density...
Loading historical data...
Loading historical data...
Loading historical data...
Loading historical data...
Loading historical data...
Loading historical data...
Loading historical data...

Documentation

Showing up to 5 results
|